STARLINK-22

decayed
NORAD ID: 44236 Int'l Des: 2019-029 Owner: SPXS Country: US Constellation: starlink
LEOCIRCULAR

关于 STARLINK-22

正在加载描述...

高度历史

Altitude vs Time

uPlot chart will show altitude changes over time

两行轨道根数

1 44236U 19029B 20222.55316459 +.30875389 +12472-4 +17311-2 0 9994
2 44236 052.9807 260.6619 0004178 316.6235 043.5158 16.42066597069218
Epoch: Aug 9, 2020 • Age: 44718 hours

当前状态

Position data unavailable
发射日期 May 24, 2019
运行时间 6.3 years
衰减日期 Aug 9, 2020
类型 internet

技术详情

分类 Payload
质量 227.00 kg
干质量 219.00 kg
总质量 227.00 kg
长度 0.20 m
直径 2.80 m
跨度 9.00 m
形状 Box + pan
制造商 SPXS
平台类型 Starlink
阶段状态 Unknown Transfer Status
所有者/国家 SPXS/US

大型星座

Loading constellations...